Location: Marysville Observatory
(48.1092°N, 122.1645°W)
Time: 05:33:56
(UTC-08:00)

Amateur Radio Satellites - All Passes

Search period start: 06 February 2016 05:03
Search period end: 07 February 2016 05:03
Location: Marysville Observatory, 48.1092°N, 122.1645°W

Satellite Date Start Highest point End Downlink Frequencies (MHz)
Time Altitude Azimuth
Cubesat XI-IV 06 Feb 05:09:56 05:12:41 14° 87° (E) 05:15:26 437.490
STRAND 1 06 Feb 05:13:13 05:17:21 25° 61° (ENE) 05:21:30 437.568
Cosmos 2504 06 Feb 05:13:38 05:22:00 62° 92° (E) 05:30:43 435.465 / 435.565
AO-7 06 Feb 05:14:27 05:22:36 59° 298° (WNW) 05:30:40 29.400- 29.500
AIST 2 06 Feb 05:20:08 05:23:52 33° 242° (WSW) 05:27:35 435.215
DANDE 06 Feb 05:20:42 05:26:05 19° 310° (NW) 05:31:44 436.750
CUSAT 1 06 Feb 05:26:49 05:29:34 12° 316° (NW) 05:32:19 437.405
BRITE-PL 06 Feb 05:36:22 05:38:17 12° 84° (E) 05:40:09 437.365/2234.400
SO-50 06 Feb 05:58:09 06:02:49 45° 120° (ESE) 06:07:33 436.795
HORYU 2 06 Feb 06:01:58 06:05:22 22° 298° (WNW) 06:08:46 437.375
CUBESAT XI-V 06 Feb 06:16:46 06:19:58 18° 270° (W) 06:23:11 437.345
PRISM 06 Feb 06:28:50 06:32:38 35° 68° (ENE) 06:36:28 437.425
LilacSat-2 06 Feb 06:33:33 06:37:21 69° 102° (ESE) 06:41:06 437.200
CUTE-I 06 Feb 06:35:43 06:41:07 72° 103° (ESE) 06:46:29 437.470
PHONESAT 2.4 06 Feb 06:36:29 06:38:32 16° 196° (SSW) 06:40:35 2401.200-2431.200
Cubesat XI-IV 06 Feb 06:48:06 06:53:31 89° 100° (E) 06:58:55 437.490
STRAND 1 06 Feb 06:51:15 06:56:14 52° 260° (W) 07:01:16 437.568
YUBILEINY 06 Feb 06:53:24 06:57:41 14° 313° (NW) 07:02:01 435.215
GOMX 1 06 Feb 07:02:01 07:06:22 38° 96° (E) 07:10:25 467.674
DOVE 4 06 Feb 07:04:38 07:07:57 21° 91° (E) 07:11:10 437.250
Cosmos 2504 06 Feb 07:08:07 07:15:55 37° 294° (WNW) 07:24:01 435.465 / 435.565
AO-7 06 Feb 07:08:33 07:13:44 18° 321° (NW) 07:18:53 29.400- 29.500
BRITE-PL 06 Feb 07:12:35 07:17:40 89° 290° (WNW) 07:22:17 437.365/2234.400
CANX-2 06 Feb 07:28:21 07:31:21 18° 91° (E) 07:34:21 2200.000
SO-50 06 Feb 07:38:53 07:43:27 36° 320° (NW) 07:48:04 436.795
HO-68 06 Feb 08:02:13 08:09:02 43° 98° (E) 08:15:48 435.675
PRISM 06 Feb 08:04:38 08:08:04 25° 266° (W) 08:11:32 437.425
LilacSat-2 06 Feb 08:09:34 08:11:10 12° 300° (WNW) 08:12:45 437.200
CUTE-I 06 Feb 08:16:44 08:20:39 21° 302° (WNW) 08:24:32 437.470
GONETS M04 06 Feb 08:18:50 08:26:12 33° 82° (E) 08:33:35
CUTE 1.7 + AOD 2 06 Feb 08:18:55 08:23:07 51° 100° (E) 08:27:17 437.475
COMPASS 1 06 Feb 08:26:01 08:29:55 35° 97° (E) 08:33:48 437.405
ANTELSAT 06 Feb 08:28:07 08:31:07 19° 62° (ENE) 08:34:06 437.575/2403.000
CINEMA 3 06 Feb 08:28:45 08:32:51 52° 99° (E) 08:36:54 145.822/145.860
Cubesat XI-IV 06 Feb 08:29:32 08:32:54 17° 305° (NW) 08:36:16 437.490
SEEDS 06 Feb 08:32:35 08:36:47 55° 101° (E) 08:40:57 437.485
TIGRISAT 06 Feb 08:36:09 08:39:23 21° 63° (ENE) 08:42:36 435.000
Cosmos 2499 06 Feb 08:37:35 08:43:18 20° 74° (ENE) 08:49:04 435.465 / 435.565
GOMX 1 06 Feb 08:40:26 08:44:18 26° 297° (WNW) 08:47:58 467.674
ZACube-1 06 Feb 08:41:01 08:43:26 15° 90° (E) 08:45:51 437.345
DOVE 4 06 Feb 08:41:47 08:45:56 42° 291° (WNW) 08:49:54 437.250
FUNcube-1 06 Feb 08:51:51 08:54:47 18° 91° (E) 08:57:43 145.935
O/OREOS (USA 219) 06 Feb 08:52:27 08:56:52 61° 112° (ESE) 09:01:20 437.305
BRITE-PL 06 Feb 08:52:40 08:55:18 14° 305° (NW) 08:57:51 437.365/2234.400
AAUSAT CUBESAT 2 06 Feb 08:58:29 09:02:41 64° 101° (ESE) 09:06:52 437.432
CUBEBUG 2 06 Feb 09:03:15 09:07:16 45° 99° (E) 09:11:18 437.445
CANX-2 06 Feb 09:03:22 09:07:30 50° 289° (WNW) 09:11:39 2200.000
DELFI C3 06 Feb 09:10:03 09:13:09 21° 93° (E) 09:16:13 145.870
UWE-3 06 Feb 09:12:42 09:16:40 42° 98° (E) 09:20:41 435.000/436.395/437.385
POPSAT HIP 1 06 Feb 09:16:45 09:19:16 16° 60° (ENE) 09:21:49 437.405
UNISAT 6 06 Feb 09:18:05 09:22:18 53° 72° (ENE) 09:26:30 437.425
SO-50 06 Feb 09:22:41 09:25:21 14° 343° (NNW) 09:28:01 436.795
NANOSAT C BR1 06 Feb 09:23:41 09:26:30 18° 61° (ENE) 09:29:21 145.865
DUCHIFAT 1 06 Feb 09:26:53 09:29:45 18° 62° (ENE) 09:32:39 145.980
QB50P1 06 Feb 09:29:04 09:32:12 20° 63° (ENE) 09:35:20 145.935-145.965
Oscar 11 06 Feb 09:30:12 09:34:31 59° 101° (E) 09:38:48 145.826/435.025
HUMSAT D 06 Feb 09:34:31 09:37:15 17° 91° (E) 09:39:59 437.325/437.525
AIST 1 06 Feb 09:49:13 09:50:29 11° 81° (E) 09:51:46
HO-68 06 Feb 09:50:00 09:56:48 46° 298° (WNW) 10:03:35 435.675
CUTE 1.7 + AOD 2 06 Feb 09:55:35 09:58:37 19° 298° (WNW) 10:01:40 437.475
COMPASS 1 06 Feb 10:01:52 10:05:22 26° 295° (WNW) 10:08:51 437.405
ANTELSAT 06 Feb 10:03:15 10:07:30 54° 260° (W) 10:11:43 437.575/2403.000
CINEMA 3 06 Feb 10:06:52 10:09:39 18° 299° (WNW) 10:12:26 145.822/145.860
SEEDS 06 Feb 10:09:14 10:12:07 18° 298° (WNW) 10:15:01 437.485
TIGRISAT 06 Feb 10:11:39 10:15:51 46° 261° (W) 10:19:59 435.000
GONETS M04 06 Feb 10:13:50 10:22:26 65° 284° (WNW) 10:31:09
ZACube-1 06 Feb 10:16:00 10:20:07 59° 287° (WNW) 10:24:16 437.345
POLYITAN 1 06 Feb 10:18:43 10:22:54 61° 72° (ENE) 10:27:05 437.675
QB50P2 06 Feb 10:19:33 10:23:45 64° 73° (ENE) 10:27:58 145.880/145.840
Cosmos 2499 06 Feb 10:26:19 10:34:59 80° 96° (E) 10:43:56 435.465 / 435.565
FUNcube-1 06 Feb 10:27:17 10:31:18 47° 289° (WNW) 10:35:22 145.935
AISAT 06 Feb 10:32:17 10:34:53 15° 90° (E) 10:37:27 437.250
O/OREOS (USA 219) 06 Feb 10:33:18 10:36:41 20° 312° (NW) 10:40:06 437.305
AAUSAT CUBESAT 2 06 Feb 10:35:13 10:37:44 16° 299° (WNW) 10:40:15 437.432
ESTCUBE 1 06 Feb 10:37:39 10:40:55 19° 91° (E) 10:44:11 437.505/2401.250
RS-15 06 Feb 10:40:06 10:48:05 23° 99° (E) 10:56:18 29.354- 29.394
CUBEBUG 2 06 Feb 10:40:36 10:43:39 20° 297° (WNW) 10:46:42 437.445
JAS-2 06 Feb 10:42:49 10:46:40 15° 49° (NE) 10:50:21 435.910
BUGSAT 1 06 Feb 10:44:14 10:48:22 57° 72° (ENE) 10:52:29 437.445
DELFI C3 06 Feb 10:44:27 10:48:14 39° 290° (WNW) 10:52:01 145.870
CUSAT 1 06 Feb 10:49:39 10:50:57 11° 42° (NE) 10:52:12 437.405
UWE-3 06 Feb 10:49:45 10:52:56 21° 296° (WNW) 10:56:08 435.000/436.395/437.385
POPSAT HIP 1 06 Feb 10:50:23 10:54:37 66° 258° (WSW) 10:58:50 437.405
Oscar 19 06 Feb 10:55:29 10:58:11 14° 54° (NE) 11:00:53 437.125/150
UNISAT 6 06 Feb 10:56:29 10:59:23 17° 269° (W) 11:02:15 437.425
AO-85 06 Feb 10:57:35 11:02:20 33° 115° (ESE) 11:07:12 145.980
NANOSAT C BR1 06 Feb 10:57:43 11:01:53 56° 259° (W) 11:06:04 145.865
DUCHIFAT 1 06 Feb 11:00:58 11:05:07 54° 260° (W) 11:09:16 145.980
CUBEBUG 1 06 Feb 11:02:53 11:06:31 24° 94° (E) 11:10:05 437.445
QB50P1 06 Feb 11:03:36 11:07:42 47° 261° (W) 11:11:50 145.935-145.965
SO-50 06 Feb 11:06:00 11:07:58 12° 8° (N) 11:09:55 436.795
UKube-1 06 Feb 11:06:27 11:10:13 28° 95° (E) 11:13:56 .
Oscar 11 06 Feb 11:07:20 11:10:14 18° 299° (WNW) 11:13:07 145.826/435.025
HUMSAT D 06 Feb 11:09:11 11:13:12 51° 288° (WNW) 11:17:15 437.325/437.525
DX 1 06 Feb 11:11:10 11:15:13 36° 98° (E) 11:19:14 434.975-435.025
AIST 1 06 Feb 11:22:59 11:27:23 83° 281° (WNW) 11:31:50
SPROUT 06 Feb 11:23:24 11:25:55 15° 89° (E) 11:28:26 437.525
HO-68 06 Feb 11:40:04 11:42:49 13° 320° (NW) 11:45:33 435.675
PCSat 06 Feb 11:43:23 11:48:37 53° 117° (ESE) 11:53:54 145.827
50 SAT 06 Feb 11:43:44 11:47:33 83° 283° (WNW) 11:51:21 437.505
TISAT 1 06 Feb 11:49:17 11:49:53 10° 87° (E) 11:50:31 437.305
VELOX 1 06 Feb 11:51:24 11:55:53 85° 105° (ESE) 12:00:18 145.980
POLYITAN 1 06 Feb 11:56:39 11:59:07 15° 270° (W) 12:01:35 437.675
ITAMSAT 1 06 Feb 11:56:54 11:58:30 11° 51° (NE) 12:00:06 435.822/435.867
QB50P2 06 Feb 11:57:40 12:00:01 14° 271° (W) 12:02:22 145.880/145.840
AISAT 06 Feb 12:07:25 12:11:50 64° 288° (WNW) 12:16:11 437.250
ESTCUBE 1 06 Feb 12:13:37 12:18:04 53° 289° (WNW) 12:22:29 437.505/2401.250
GONETS M04 06 Feb 12:16:09 12:21:21 17° 309° (NW) 12:26:37
BUGSAT 1 06 Feb 12:21:29 12:24:06 16° 269° (W) 12:26:43 437.445
Cosmos 2499 06 Feb 12:21:47 12:29:09 29° 299° (WNW) 12:36:39 435.465 / 435.565
JAS-2 06 Feb 12:22:58 12:30:29 58° 68° (ENE) 12:37:21 435.910
DANDE 06 Feb 12:28:54 12:35:56 34° 61° (ENE) 12:41:43 436.750
CUSAT 1 06 Feb 12:29:01 12:35:35 46° 68° (ENE) 12:40:38 437.405
Oscar 19 06 Feb 12:31:31 12:36:43 80° 73° (ENE) 12:41:56 437.125/150
Gurwin Techsat 1B 06 Feb 12:31:41 12:36:27 35° 65° (ENE) 12:41:15 435.225
AO-7 06 Feb 12:35:25 12:41:12 21° 42° (NE) 12:46:58 29.400- 29.500
AO-85 06 Feb 12:37:23 12:42:43 54° 315° (NW) 12:48:07 145.980
CUBEBUG 1 06 Feb 12:38:51 12:42:57 38° 292° (WNW) 12:46:59 437.445
UKube-1 06 Feb 12:42:24 12:46:18 33° 294° (WNW) 12:50:11 .
SO-50 06 Feb 12:46:10 12:50:12 25° 32° (NNE) 12:54:09 436.795
RS-15 06 Feb 12:47:20 12:58:30 80° 123° (ESE) 13:10:21 29.354- 29.394
DX 1 06 Feb 12:47:37 12:51:17 27° 296° (WNW) 12:54:56 434.975-435.025
SPROUT 06 Feb 12:58:06 13:02:19 60° 287° (WNW) 13:06:30 437.525
YUBILEINY 06 Feb 12:58:58 13:05:59 25° 58° (ENE) 13:12:55 435.215
AIST 1 06 Feb 13:04:49 13:05:47 11° 299° (WNW) 13:06:44
SWISSCUBE 06 Feb 13:08:22 13:11:27 17° 90° (E) 13:14:31 437.505
TISAT 1 06 Feb 13:21:59 13:26:11 86° 286° (WNW) 13:30:22 437.305
PCSat 06 Feb 13:27:22 13:32:17 33° 318° (NW) 13:37:12 145.827
VELOX 1 06 Feb 13:29:32 13:31:44 14° 303° (WNW) 13:33:54 145.980
ITAMSAT 1 06 Feb 13:31:51 13:36:57 62° 70° (ENE) 13:42:07 435.822/435.867
ITUPSAT 1 06 Feb 13:42:18 13:46:33 30° 95° (E) 13:50:47 437.325
BEESAT 06 Feb 13:53:13 13:57:42 38° 98° (E) 14:02:10 436.000
M-CUBED/EXP-1 PRIME 06 Feb 13:53:16 13:55:50 19° 59° (ENE) 13:58:18 437.505
HORYU 2 06 Feb 13:54:25 13:54:43 10° 54° (NE) 13:55:00 437.375
AUBIESAT-1 06 Feb 14:06:19 14:09:04 21° 60° (ENE) 14:11:44 437.475
JAS-2 06 Feb 14:08:47 14:15:43 35° 266° (W) 14:22:12 435.910
Gurwin Techsat 1B 06 Feb 14:11:26 14:16:22 38° 263° (W) 14:21:20 435.225
CUSAT 1 06 Feb 14:11:50 14:17:33 32° 275° (W) 14:22:08 437.405
DANDE 06 Feb 14:11:51 14:19:27 58° 267° (W) 14:25:26 436.750
Oscar 19 06 Feb 14:13:38 14:16:40 16° 272° (W) 14:19:44 437.125/150
AO-85 06 Feb 14:20:34 14:24:27 19° 337° (NNW) 14:28:19 145.980
AO-7 06 Feb 14:24:18 14:32:35 69° 65° (ENE) 14:40:54 29.400- 29.500
SO-50 06 Feb 14:26:23 14:31:16 78° 235° (SW) 14:35:58 436.795
SWISSCUBE 06 Feb 14:44:56 14:49:44 67° 288° (WNW) 14:54:30 437.505
STARS 06 Feb 14:52:25 14:54:25 13° 89° (E) 14:56:23 437.465
YUBILEINY 06 Feb 14:55:09 15:04:04 88° 262° (W) 15:12:54 435.215
KKS-1 06 Feb 14:57:58 15:01:42 26° 94° (E) 15:05:24 437.445
TISAT 1 06 Feb 14:59:55 15:01:11 11° 304° (WNW) 15:02:27 437.305
RS-15 06 Feb 15:01:16 15:12:07 46° 332° (NNW) 15:23:35 29.354- 29.394
Cosmos 2504 06 Feb 15:02:24 15:09:58 31° 62° (ENE) 15:17:09 435.465 / 435.565
Cosmos 2491 06 Feb 15:03:13 15:11:29 50° 88° (E) 15:19:45 435.465 / 435.565
ITAMSAT 1 06 Feb 15:13:03 15:16:52 21° 269° (W) 15:20:43 435.822/435.867
PCSat 06 Feb 15:15:03 15:17:25 13° 342° (NNW) 15:19:47 145.827
ITUPSAT 1 06 Feb 15:20:02 15:24:27 37° 294° (WNW) 15:28:52 437.325
HORYU 2 06 Feb 15:26:04 15:30:27 69° 73° (ENE) 15:34:52 437.375
M-CUBED/EXP-1 PRIME 06 Feb 15:26:48 15:30:19 39° 255° (WSW) 15:33:37 437.505
BEESAT 06 Feb 15:31:14 15:35:23 30° 296° (WNW) 15:39:31 436.000
AUBIESAT-1 06 Feb 15:40:11 15:43:33 33° 255° (WSW) 15:46:46 437.475
DANDE 06 Feb 15:58:20 16:00:22 11° 290° (WNW) 16:02:17 436.750
MOZHAYETS 4 06 Feb 16:00:12 16:04:40 45° 98° (E) 16:09:07
AO-85 06 Feb 16:04:32 16:07:07 13° 2° (N) 16:09:39 145.980
SO-50 06 Feb 16:09:09 16:10:54 12° 253° (WSW) 16:12:39 436.795
AO-7 06 Feb 16:18:43 16:25:58 32° 266° (W) 16:33:15 29.400- 29.500
CUTE-I 06 Feb 16:22:33 16:26:57 27° 61° (ENE) 16:31:23 437.470
SWISSCUBE 06 Feb 16:25:18 16:26:39 11° 307° (NW) 16:28:00 437.505
STARS 06 Feb 16:26:57 16:31:20 75° 287° (WNW) 16:35:41 437.465
CUBESAT XI-V 06 Feb 16:32:36 16:34:23 12° 86° (E) 16:36:10 437.345
KKS-1 06 Feb 16:34:17 16:38:24 38° 292° (WNW) 16:42:28 437.445
Cubesat XI-IV 06 Feb 16:34:40 16:39:23 33° 64° (ENE) 16:44:08 437.490
GOMX 1 06 Feb 16:38:32 16:40:30 12° 55° (NE) 16:42:28 467.674
BRITE-PL 06 Feb 16:48:35 16:53:11 26° 62° (ENE) 16:57:42 437.365/2234.400
HO-68 06 Feb 16:52:24 16:55:09 13° 40° (NE) 16:57:55 435.675
YUBILEINY 06 Feb 16:53:27 16:59:36 22° 284° (WNW) 17:05:45 435.215
Cosmos 2504 06 Feb 16:55:29 17:04:15 73° 266° (W) 17:12:28 435.465 / 435.565
Cosmos 2491 06 Feb 17:00:17 17:08:29 43° 291° (WNW) 17:16:43 435.465 / 435.565
PCSat 06 Feb 17:02:13 17:03:26 11° 9° (N) 17:04:41 145.827
HORYU 2 06 Feb 17:05:08 17:07:31 14° 271° (W) 17:09:54 437.375
RS-15 06 Feb 17:17:44 17:28:17 36° 6° (N) 17:39:14 29.354- 29.394
LilacSat-2 06 Feb 17:18:50 17:22:35 56° 73° (ENE) 17:26:21 437.200
O/OREOS (USA 219) 06 Feb 17:19:48 17:23:51 30° 53° (NE) 17:27:55 437.305
ISS 06 Feb 17:27:18 17:30:15 32° 145° (SE) 17:33:12 145.825
BEESAT 3 06 Feb 17:36:37 17:39:44 22° 115° (ESE) 17:42:51 437.485
MOZHAYETS 4 06 Feb 17:37:52 17:41:37 25° 297° (WNW) 17:45:21
AO-85 06 Feb 17:45:36 17:49:41 21° 26° (NNE) 17:53:34 145.980
BEESAT 2 06 Feb 17:54:13 17:57:21 22° 115° (ESE) 18:00:30 435.950
CINEMA 3 06 Feb 18:00:13 18:01:33 11° 57° (ENE) 18:02:50 145.822/145.860
CUTE-I 06 Feb 18:01:33 18:06:43 51° 260° (W) 18:11:57 437.470
STARS 06 Feb 18:05:56 18:06:56 11° 305° (NW) 18:07:55 437.465
CUBESAT XI-V 06 Feb 18:07:42 18:12:28 89° 292° (WNW) 18:17:10 437.345
GOMX 1 06 Feb 18:12:19 18:17:42 65° 73° (ENE) 18:22:53 467.674
DOVE 4 06 Feb 18:12:32 18:17:13 37° 68° (ENE) 18:21:41 437.250
Cubesat XI-IV 06 Feb 18:14:23 18:19:22 41° 262° (W) 18:24:25 437.490
GONETS M04 06 Feb 18:23:29 18:29:45 21° 55° (NE) 18:36:00
CANX-2 06 Feb 18:24:44 18:27:54 21° 63° (ENE) 18:31:06 2200.000
BRITE-PL 06 Feb 18:25:38 18:31:16 61° 260° (W) 18:36:50 437.365/2234.400
HO-68 06 Feb 18:34:25 18:41:10 47° 62° (ENE) 18:47:58 435.675
PCSat 06 Feb 18:44:40 18:48:59 23° 35° (NE) 18:53:16 145.827
Cosmos 2504 06 Feb 18:50:57 18:55:58 17° 288° (WNW) 19:00:51 435.465 / 435.565
LilacSat-2 06 Feb 18:55:21 18:57:17 13° 270° (W) 18:59:13 437.200
STRAND 1 06 Feb 18:57:59 19:02:51 40° 98° (E) 19:07:42 437.568
O/OREOS (USA 219) 06 Feb 18:59:06 19:03:20 37° 253° (WSW) 19:07:34 437.305
ISS 06 Feb 19:03:22 19:06:35 62° 344° (NNW) 19:09:49 145.825
Cosmos 2491 06 Feb 19:06:27 19:08:21 11° 318° (NW) 19:10:15 435.465 / 435.565
BEESAT 3 06 Feb 19:13:23 19:17:14 47° 314° (NW) 19:21:07 437.485
CUTE 1.7 + AOD 2 06 Feb 19:14:52 19:18:59 57° 72° (ENE) 19:23:09 437.475
COMPASS 1 06 Feb 19:20:13 19:24:03 38° 69° (ENE) 19:27:56 437.405
AIST 2 06 Feb 19:21:24 19:24:29 20° 114° (ESE) 19:27:36 435.215
AO-85 06 Feb 19:25:54 19:31:12 70° 49° (NE) 19:36:04 145.980
SEEDS 06 Feb 19:27:36 19:31:42 59° 73° (ENE) 19:35:51 437.485
BEESAT 2 06 Feb 19:31:06 19:35:00 48° 314° (NW) 19:38:55 435.950
RS-15 06 Feb 19:32:07 19:43:57 57° 38° (NE) 19:56:04 29.354- 29.394
CINEMA 3 06 Feb 19:33:20 19:38:00 76° 74° (ENE) 19:42:28 145.822/145.860
ZACube-1 06 Feb 19:40:20 19:43:20 19° 63° (ENE) 19:46:20 437.345
PRISM 06 Feb 19:42:04 19:45:55 34° 97° (E) 19:49:44 437.425
CUBESAT XI-V 06 Feb 19:46:47 19:49:10 14° 303° (WNW) 19:51:31 437.345
DOVE 4 06 Feb 19:50:19 19:54:55 33° 265° (W) 19:59:22 437.250
FUNcube-1 06 Feb 19:50:55 19:54:14 23° 65° (ENE) 19:57:32 145.935
AAUSAT CUBESAT 2 06 Feb 19:52:03 19:56:08 67° 74° (ENE) 20:00:17 437.432
GOMX 1 06 Feb 19:52:09 19:56:10 21° 270° (W) 20:00:05 467.674
CANX-2 06 Feb 19:59:30 20:03:31 44° 262° (W) 20:07:35 2200.000
DELFI C3 06 Feb 20:00:05 20:03:04 21° 64° (ENE) 20:06:04 145.870
CUBEBUG 2 06 Feb 20:04:36 20:08:53 60° 73° (ENE) 20:13:05 437.445
UWE-3 06 Feb 20:13:00 20:17:10 54° 72° (ENE) 20:21:16 435.000/436.395/437.385
Cosmos 2499 06 Feb 20:14:04 20:22:00 38° 66° (ENE) 20:29:24 435.465 / 435.565
GONETS M04 06 Feb 20:19:23 20:28:13 79° 79° (E) 20:37:04
HO-68 06 Feb 20:22:14 20:28:57 42° 262° (W) 20:35:46 435.675
PCSat 06 Feb 20:27:39 20:33:08 90° 175° (S) 20:38:34 145.827
Oscar 11 06 Feb 20:28:08 20:32:24 71° 73° (ENE) 20:36:43 145.826/435.025
HUMSAT D 06 Feb 20:29:34 20:32:30 19° 63° (ENE) 20:35:26 437.325/437.525
STRAND 1 06 Feb 20:37:23 20:41:56 32° 296° (WNW) 20:46:27 437.568
ISS 06 Feb 20:40:14 20:43:21 43° 3° (N) 20:46:29 145.825
CUTE 1.7 + AOD 2 06 Feb 20:52:39 20:55:13 16° 271° (W) 20:57:48 437.475
BEESAT 3 06 Feb 20:54:14 20:55:58 12° 335° (NNW) 20:57:42 437.485
COMPASS 1 06 Feb 20:56:28 20:59:46 23° 267° (W) 21:03:06 437.405
AIST 2 06 Feb 20:58:34 21:02:40 54° 312° (NW) 21:06:48 435.215
SEEDS 06 Feb 21:05:25 21:07:49 15° 271° (W) 21:10:16 437.485
AO-85 06 Feb 21:07:23 21:11:10 21° 250° (WSW) 21:14:44 145.980
BEESAT 2 06 Feb 21:12:02 21:13:51 13° 335° (NNW) 21:15:41 435.950
CINEMA 3 06 Feb 21:13:18 21:15:37 14° 271° (W) 21:17:54 145.822/145.860
ZACube-1 06 Feb 21:15:15 21:19:21 48° 261° (W) 21:23:25 437.345
PRISM 06 Feb 21:17:38 21:21:09 26° 295° (WNW) 21:24:38 437.425
VELOX 1 06 Feb 21:17:42 21:20:28 16° 59° (ENE) 21:23:13 145.980
FUNcube-1 06 Feb 21:26:22 21:30:19 39° 262° (W) 21:34:15 145.935
AIST 1 06 Feb 21:26:32 21:30:34 35° 73° (ENE) 21:34:33
AAUSAT CUBESAT 2 06 Feb 21:30:10 21:32:08 13° 272° (W) 21:34:06 437.432
AISAT 06 Feb 21:32:50 21:36:19 23° 63° (ENE) 21:39:49 437.250
DELFI C3 06 Feb 21:34:01 21:37:45 40° 262° (W) 21:41:34 145.870
ESTCUBE 1 06 Feb 21:40:26 21:44:15 27° 65° (ENE) 21:48:06 437.505/2401.250
CUBEBUG 2 06 Feb 21:43:19 21:45:54 15° 270° (W) 21:48:27 437.445
RS-15 06 Feb 21:45:00 21:56:47 61° 244° (WSW) 22:08:45 29.354- 29.394
UWE-3 06 Feb 21:51:12 21:53:58 17° 269° (W) 21:56:43 435.000/436.395/437.385
ANTELSAT 06 Feb 21:51:34 21:55:01 23° 93° (E) 21:58:29 437.575/2403.000
TIGRISAT 06 Feb 21:59:33 22:03:11 26° 95° (E) 22:06:49 435.000
CUBEBUG 1 06 Feb 22:02:03 22:06:01 33° 67° (ENE) 22:10:00 437.445
HUMSAT D 06 Feb 22:03:56 22:07:51 46° 261° (W) 22:11:49 437.325/437.525
UKube-1 06 Feb 22:04:14 22:08:15 38° 68° (ENE) 22:12:17 .
Oscar 11 06 Feb 22:06:58 22:09:03 13° 272° (W) 22:11:08 145.826/435.025
Cosmos 2499 06 Feb 22:07:12 22:15:33 57° 270° (W) 22:23:17 435.465 / 435.565
DX 1 06 Feb 22:09:49 22:14:04 50° 70° (ENE) 22:18:19 434.975-435.025
PCSat 06 Feb 22:12:38 22:15:46 16° 256° (WSW) 22:18:54 145.827
ISS 06 Feb 22:16:46 22:20:02 90° 234° (SW) 22:23:17 145.825
GONETS M04 06 Feb 22:17:17 22:24:07 26° 281° (W) 22:30:59
SPROUT 06 Feb 22:20:30 22:23:37 20° 62° (ENE) 22:26:44 437.525
50 SAT 06 Feb 22:27:15 22:30:57 81° 75° (ENE) 22:34:42 437.505
POPSAT HIP 1 06 Feb 22:32:51 22:35:24 16° 90° (E) 22:37:56 437.405
NANOSAT C BR1 06 Feb 22:39:29 22:42:22 18° 91° (E) 22:45:13 145.865
AIST 2 06 Feb 22:39:49 22:42:05 14° 334° (NNW) 22:44:21 435.215
DUCHIFAT 1 06 Feb 22:42:27 22:45:21 18° 91° (E) 22:48:15 145.980
UNISAT 6 06 Feb 22:42:29 22:46:48 73° 103° (ESE) 22:51:10 437.425
TISAT 1 06 Feb 22:43:39 22:45:56 14° 59° (ENE) 22:48:14 437.305
QB50P1 06 Feb 22:45:19 22:48:32 21° 93° (E) 22:51:44 145.935-145.965
VELOX 1 06 Feb 22:51:58 22:56:26 71° 258° (WSW) 23:00:55 145.980
AIST 1 06 Feb 23:04:27 23:08:01 25° 272° (W) 23:11:34
AISAT 06 Feb 23:08:15 23:12:33 47° 261° (W) 23:16:54 437.250
ESTCUBE 1 06 Feb 23:16:44 23:20:56 38° 263° (W) 23:25:12 437.505/2401.250
ANTELSAT 06 Feb 23:27:52 23:31:54 40° 291° (WNW) 23:35:58 437.575/2403.000
BEESAT 06 Feb 23:29:36 23:30:43 11° 53° (NE) 23:31:51 436.000
POLYITAN 1 06 Feb 23:35:51 23:40:03 70° 102° (ESE) 23:44:14 437.675
TIGRISAT 06 Feb 23:36:03 23:39:58 35° 292° (WNW) 23:43:54 435.000
QB50P2 06 Feb 23:36:41 23:40:55 73° 103° (ESE) 23:45:06 145.880/145.840
CUBEBUG 1 06 Feb 23:38:24 23:42:19 30° 265° (W) 23:46:15 437.445
UKube-1 06 Feb 23:40:51 23:44:25 25° 266° (W) 23:48:01 .
DX 1 06 Feb 23:47:22 23:50:32 19° 268° (W) 23:53:44 434.975-435.025
ISS 06 Feb 23:53:47 23:56:08 19° 221° (SW) 23:58:29 145.825
SPROUT 06 Feb 23:55:06 23:59:17 50° 260° (W) 00:03:29 437.525
BUGSAT 1 06 Feb 23:57:55 00:01:57 58° 101° (E) 00:05:55 437.445
RS-15 07 Feb 00:00:27 00:06:35 16° 267° (W) 00:12:46 29.354- 29.394
Cosmos 2499 07 Feb 00:03:59 00:06:33 12° 293° (WNW) 00:09:05 435.465 / 435.565
POPSAT HIP 1 07 Feb 00:07:26 00:11:34 57° 288° (WNW) 00:15:41 437.405
BEESAT 3 07 Feb 00:13:38 00:15:14 12° 24° (NNE) 00:16:48 437.485
NANOSAT C BR1 07 Feb 00:14:21 00:18:24 49° 289° (WNW) 00:22:27 145.865
TISAT 1 07 Feb 00:16:52 00:21:06 73° 257° (WSW) 00:25:21 437.305
DUCHIFAT 1 07 Feb 00:17:18 00:21:21 48° 289° (WNW) 00:25:22 145.980
SWISSCUBE 07 Feb 00:17:57 00:22:01 29° 64° (ENE) 00:26:08 437.505
QB50P1 07 Feb 00:20:33 00:24:32 42° 291° (WNW) 00:28:29 145.935-145.965
UNISAT 6 07 Feb 00:20:39 00:23:02 15° 301° (WNW) 00:25:24 437.425
BEESAT 2 07 Feb 00:31:44 00:33:24 12° 24° (NNE) 00:35:04 435.950
Oscar 19 07 Feb 00:40:13 00:44:06 21° 91° (E) 00:47:59 437.125/150
ITUPSAT 1 07 Feb 00:52:18 00:56:56 52° 70° (ENE) 01:01:35 437.325
BEESAT 07 Feb 01:02:54 01:07:37 66° 72° (ENE) 01:12:21 436.000
Cosmos 2491 07 Feb 01:08:47 01:16:19 31° 63° (ENE) 01:23:49 435.465 / 435.565
POLYITAN 1 07 Feb 01:13:01 01:15:23 15° 301° (WNW) 01:17:43 437.675
QB50P2 07 Feb 01:13:58 01:16:12 14° 301° (WNW) 01:18:26 145.880/145.840
JAS-2 07 Feb 01:14:56 01:20:07 31° 92° (E) 01:24:51 435.910
CUSAT 1 07 Feb 01:33:35 01:41:00 46° 90° (E) 01:48:35 437.405
BUGSAT 1 07 Feb 01:34:26 01:36:55 16° 300° (WNW) 01:39:23 437.445
DANDE 07 Feb 01:40:04 01:46:45 33° 84° (E) 01:54:00 436.750
ITAMSAT 1 07 Feb 01:42:11 01:45:28 16° 89° (E) 01:48:43 435.822/435.867
BEESAT 3 07 Feb 01:50:09 01:53:59 44° 46° (NE) 01:57:47 437.485
STARS 07 Feb 01:52:06 01:55:15 20° 61° (ENE) 01:58:24 437.465
SWISSCUBE 07 Feb 01:55:15 01:59:42 39° 262° (W) 02:04:12 437.505
KKS-1 07 Feb 01:59:14 02:03:20 37° 67° (ENE) 02:07:27 437.445
AIST 2 07 Feb 02:01:04 02:02:52 12° 23° (NNE) 02:04:41 435.215
YUBILEINY 07 Feb 02:06:36 02:12:58 23° 77° (ENE) 02:19:22 435.215
BEESAT 2 07 Feb 02:08:26 02:12:18 45° 45° (NE) 02:16:08 435.950
Oscar 19 07 Feb 02:18:46 02:23:50 58° 290° (WNW) 02:28:50 437.125/150
Gurwin Techsat 1B 07 Feb 02:23:20 02:28:40 65° 102° (ESE) 02:33:57 435.225
AO-7 07 Feb 02:23:39 02:28:31 16° 86° (E) 02:33:21 29.400- 29.500
PHONESAT 2.4 07 Feb 02:30:01 02:31:04 11° 158° (SSE) 02:32:07 2401.200-2431.200
ITUPSAT 1 07 Feb 02:31:27 02:35:05 21° 268° (W) 02:38:45 437.325
BEESAT 07 Feb 02:42:49 02:45:53 17° 270° (W) 02:48:58 436.000
JAS-2 07 Feb 02:59:47 03:05:27 44° 295° (WNW) 03:10:35 435.910
Cosmos 2491 07 Feb 03:05:17 03:13:59 72° 266° (W) 03:22:40 435.465 / 435.565
MOZHAYETS 4 07 Feb 03:05:21 03:09:51 63° 73° (ENE) 03:14:24
CUSAT 1 07 Feb 03:15:38 03:23:19 50° 290° (WNW) 03:31:06 437.405
ITAMSAT 1 07 Feb 03:20:17 03:25:33 77° 286° (WNW) 03:30:46 435.822/435.867
DANDE 07 Feb 03:21:29 03:29:09 68° 286° (WNW) 03:37:41 436.750
STARS 07 Feb 03:26:56 03:31:16 54° 259° (W) 03:35:37 437.465
BEESAT 3 07 Feb 03:28:22 03:31:31 23° 245° (WSW) 03:34:39 437.485
KKS-1 07 Feb 03:36:13 03:40:00 27° 265° (W) 03:43:48 437.445
AIST 2 07 Feb 03:38:26 03:42:26 43° 45° (NE) 03:46:23 435.215
CUBESAT XI-V 07 Feb 03:38:45 03:42:01 19° 60° (ENE) 03:45:19 437.345
Cosmos 2504 07 Feb 03:46:41 03:52:44 22° 75° (ENE) 03:58:54 435.465 / 435.565
BEESAT 2 07 Feb 03:46:48 03:49:59 23° 245° (WSW) 03:53:09 435.950
YUBILEINY 07 Feb 03:59:49 04:08:37 87° 281° (W) 04:17:32 435.215
Oscar 19 07 Feb 04:01:09 04:02:06 10° 310° (NW) 04:03:04 437.125/150
Gurwin Techsat 1B 07 Feb 04:04:09 04:08:10 22° 301° (WNW) 04:12:10 435.225
PHONESAT 2.4 07 Feb 04:05:07 04:07:39 21° 174° (S) 04:10:11 2401.200-2431.200
AO-7 07 Feb 04:14:25 04:22:48 73° 107° (ESE) 04:31:05 29.400- 29.500
M-CUBED/EXP-1 PRIME 07 Feb 04:36:58 04:40:17 74° 108° (ESE) 04:43:43 437.505
STRAND 1 07 Feb 04:41:17 04:44:01 15° 54° (NE) 04:46:44 437.568
MOZHAYETS 4 07 Feb 04:44:37 04:47:29 16° 271° (W) 04:50:22
SO-50 07 Feb 04:45:37 04:48:29 16° 109° (ESE) 04:51:24 436.795
AUBIESAT-1 07 Feb 04:49:36 04:52:59 86° 111° (ESE) 04:56:28 437.475
HORYU 2 07 Feb 04:49:49 04:54:17 84° 104° (ESE) 04:58:45 437.375
